User: anonymous   Login
Location: Unspecified
(0.0000°N, 0.0000°E)
Time: 10:50:11
(UTC+00:00)
Language:

HIMAWARI 8 - Orbit

View from above orbital plane
View from above orbital plane
View from above satellite
View from above satellite

Ground track
Ground track

The orbit data is extracted from the following two-line orbital elements,

1 40267U 14060A   19018.28323676 -.00000270  00000-0  00000+0 0  9995
2 40267   0.0238 304.7381 0001433   0.2861  54.9527  1.00268906 15727
Epoch (UTC): 18 January 2019 06:47:51
Eccentricity: 0.0001433
inclination: 0.0238°
perigee height: 35781 km
apogee height: 35793 km
right ascension of ascending node: 304.7381°
argument of perigee: 0.2861°
revolutions per day: 1.00268906
mean anomaly at epoch: 54.9527°
orbit number at epoch: 1572

The dashed part of the orbit path shows where the satellite is in the earth's shadow,  

DLR